Weather History for Jacksonville, FL

Change the Weather History Date:

Saturday, November 17, 2012

  Actual Average Record
Temperature  
Mean Temperature 58 °F 62 °F  
Max Temperature 62 °F 73 °F 85 °F (1957)
Min Temperature 53 °F 50 °F 29 °F (1970)
Degree Days  
Heating Degree Days 7 5  
Month to date heating degree days 99 63  
Since 1 July heating degree days 131 91  
Cooling Degree Days 0 2  
Month to date cooling degree days 14 42  
Year to date cooling degree days 2743 2625  
Growing Degree Days 8 (Base 50)    
Moisture  
Dew Point 50 °F    
Average Humidity 81    
Maximum Humidity 89    
Minimum Humidity 72    
Precipitation  
Precipitation 0.00 in 0.06 in 1.28 in (1987)
Month to date precipitation 0.25 1.23  
Year to date precipitation 51.08 48.71  
Snow  
Snow 0.00 in 0.00 in 0.00 in (2001)
Month to date snowfall 0.0 0.0  
Since 1 July snowfall 0.0 0.0  
Since 1 September snowfall 0.0 0.0  
Snow Depth 0.00 in    
Sea Level Pressure  
Sea Level Pressure 30.23 in    
Wind  
Wind Speed 11 mph (North)    
Max Wind Speed 20 mph    
Max Gust Speed 24 mph    
Visibility 10 miles    
Events      
T = Trace of Precipitation, MM = Missing Value Source: NWS Daily Summary

Daily Weather History Graph

Daily Weather History Graph

Search for Another Location

Airport:

Trip Planner

Search our weather history database for the weather conditions in past years. The results will help you decide how hot, cold, wet, or windy it might be!

Date:

Astronomy

Nov. 17, 2012 Rise Set
Actual Time 6:54 AM EST 5:28 PM EST
Civil Twilight 6:29 AM EST 5:54 PM EST
Nautical Twilight 6:00 AM EST 6:23 PM EST
Astronomical Twilight 5:31 AM EST 6:51 PM EST
Moon 10:38 AM EST (11/17) 9:35 PM EST (11/17)
Length of Visible Light 11h 24m
Length of Day
10h 33m
Waxing Crescent, 20% of the Moon is Illuminated
Nov 17
Waxing Crescent
Nov 20
First Quarter
Nov 28
Full
Dec 6
Last Quarter
Dec 13
New

Hourly Weather History & Observations

Time (EST) Temp. Dew Point Humidity Pressure Visibility Wind Dir Wind Speed Gust Speed Precip Events Conditions
12:03 AM 53.6 °F 48.2 °F 82% 30.21 in 10.0 mi North 10.4 mph - N/A   Overcast
12:56 AM 53.1 °F 48.9 °F 86% 30.22 in 10.0 mi North 5.8 mph - N/A   Overcast
1:56 AM 53.1 °F 48.9 °F 86% 30.20 in 10.0 mi North 8.1 mph - N/A   Overcast
2:56 AM 53.1 °F 48.9 °F 86% 30.19 in 10.0 mi North 6.9 mph - N/A   Overcast
3:56 AM 53.1 °F 48.9 °F 86% 30.19 in 10.0 mi North 6.9 mph - N/A   Overcast
4:56 AM 54.0 °F 50.0 °F 86% 30.19 in 10.0 mi NNW 6.9 mph - N/A   Overcast
5:56 AM 53.1 °F 50.0 °F 89% 30.21 in 10.0 mi NNW 6.9 mph - N/A   Overcast
6:56 AM 53.1 °F 50.0 °F 89% 30.22 in 10.0 mi North 6.9 mph - N/A   Overcast
7:56 AM 53.1 °F 48.9 °F 86% 30.23 in 10.0 mi NNW 8.1 mph - N/A   Overcast
8:46 AM 55.4 °F 50.0 °F 82% 30.24 in 10.0 mi North 8.1 mph - N/A   Overcast
8:56 AM 55.9 °F 51.1 °F 84% 30.24 in 10.0 mi North 12.7 mph - N/A   Overcast
9:56 AM 57.9 °F 52.0 °F 81% 30.25 in 10.0 mi NNE 11.5 mph - N/A   Overcast
10:56 AM 60.1 °F 52.0 °F 75% 30.25 in 10.0 mi North 16.1 mph 21.9 mph N/A   Mostly Cloudy
11:26 AM 60.8 °F 51.8 °F 72% 30.24 in 10.0 mi NNE 15.0 mph - N/A   Mostly Cloudy
11:56 AM 60.8 °F 51.8 °F 72% 30.24 in 10.0 mi NNE 13.8 mph 23.0 mph N/A   Mostly Cloudy
12:56 PM 59.0 °F 51.1 °F 75% 30.22 in 10.0 mi NNE 15.0 mph 21.9 mph N/A   Mostly Cloudy
1:25 PM 60.8 °F 51.8 °F 72% 30.21 in 10.0 mi NNE 12.7 mph - N/A   Mostly Cloudy
1:56 PM 60.1 °F 51.1 °F 72% 30.21 in 10.0 mi NNE 12.7 mph 20.7 mph N/A   Mostly Cloudy
2:36 PM 57.2 °F 50.0 °F 77% 30.22 in 10.0 mi NNE 16.1 mph - N/A   Mostly Cloudy
2:56 PM 57.0 °F 50.0 °F 77% 30.22 in 10.0 mi NE 17.3 mph 24.2 mph N/A   Mostly Cloudy
3:22 PM 55.4 °F 50.0 °F 82% 30.22 in 10.0 mi North 12.7 mph 20.7 mph N/A   Mostly Cloudy
3:56 PM 55.9 °F 50.0 °F 80% 30.23 in 10.0 mi NNE 13.8 mph - N/A   Overcast
4:56 PM 55.9 °F 50.0 °F 80% 30.23 in 10.0 mi NNE 13.8 mph - N/A   Overcast
5:34 PM 55.4 °F 50.0 °F 82% 30.24 in 10.0 mi NNE 12.7 mph 17.3 mph N/A   Overcast
5:56 PM 55.9 °F 48.9 °F 77% 30.25 in 10.0 mi NNE 13.8 mph 20.7 mph N/A   Overcast
6:56 PM 55.9 °F 48.0 °F 75% 30.26 in 10.0 mi NNE 13.8 mph 19.6 mph N/A   Overcast
7:56 PM 55.9 °F 48.0 °F 75% 30.26 in 10.0 mi North 11.5 mph 19.6 mph N/A   Overcast
8:56 PM 55.9 °F 46.9 °F 72% 30.26 in 10.0 mi NNE 10.4 mph - N/A   Overcast
9:56 PM 55.0 °F 46.9 °F 74% 30.27 in 10.0 mi North 6.9 mph - N/A   Overcast
10:56 PM 54.0 °F 46.9 °F 77% 30.25 in 10.0 mi North 9.2 mph - N/A   Overcast
11:56 PM 54.0 °F 46.0 °F 75% 30.25 in 10.0 mi North 8.1 mph - N/A   Overcast